Location: Unspecified
(43.4680°N, 87.1740°E)
Time: 05:05:44
(UTC+00:00)

CZ-4B R/B - Pass Details

Date: 17 April 2021
Orbit: 702 x 803 km, 98.9° (Epoch: 16 May)

Event Time Altitude Azimuth Distance (km) Brightness Sun altitude
Rises 21:33:58 0° 10° (N) 3,101 7.4 -18.8°
Reaches altitude 10° 21:36:14 10° 8° (N) 2,179 6.4 -18.4°
Maximum altitude 21:40:55 63° 288° (WNW) 792 3.4 -17.7°
Enters shadow 21:43:09 30° 218° (SW) 1,250 4.1 -17.4°
